{"data":{"norad_id":55103,"epoch":"2026-05-25T03:27:01.454976Z","epoch_age_seconds":69456,"freshness":"FRESH","line1":"1 55103U 23001CY  26145.14376684  .00021035  00000+0  39623-3 0  9993","line2":"2 55103  97.3253 215.5998 0009428 151.4047 208.7723 15.48494996189027","mean_motion":15.48494996,"eccentricity":0.0009428,"inclination_deg":97.3253,"raan_deg":215.5998,"arg_perigee_deg":151.4047,"mean_anomaly_deg":208.7723,"bstar":0.00039623,"rev_number":18902,"period_min":92.993519754325,"perigee_km":414.71769107304,"apogee_km":427.53838522897,"semimajor_km":6799.265038151,"source":"CELESTRAK","updated_at":"2026-05-25T13:37:58.815268Z"}}